Terminal Aerodrome Forecast
Issued by NWS Wilmington, NC

Home | Current Version | Previous Version | Text Only | Print | Product List | Glossary On
Versions: 1 2 3 4 5 6 7 8 9 10 11 12 13 14 15 16 17 18 19 20 21 22 23 24 25 26 27 28 29 30 31 32
000
FTUS42 KILM 270500
TAFILM
TAF
KILM 270525Z 2706/2806 34003KT P6SM FEW040
      TEMPO 2706/2709 BKN015
     FM270900 34003KT P6SM SCT015
      TEMPO 2709/2713 5SM BR
     FM271300 01008KT P6SM SCT250
     FM271800 36010KT P6SM SCT040
     FM280200 02008KT P6SM SCT025 SCT200=

USA.gov is the U.S. government's official web portal to all federal, state and local government web resources and services.